[Iaude] MPEC T52: 2016 TJ10 [a=1.75,e=0.51,i=15.8,H=25.4]

mpec at si.edu mpec at si.edu
Thu Oct 6 13:01:48 EDT 2016


M.P.E.C. 2016-T52                                Issued 2016 Oct. 6, 16:57 UT
 
     The Minor Planet Electronic Circulars contain information on unusual
         minor planets and routine data on comets.  They are published
    on behalf of Division F of the International Astronomical Union by the
          Minor Planet Center, Smithsonian Astrophysical Observatory,
                          Cambridge, MA 02138, U.S.A.

             Prepared using the Tamkin Foundation Computer Network

                              MPC at CFA.HARVARD.EDU
            URL http://www.minorplanetcenter.net/    ISSN 1523-6714


                                   2016 TJ10
 
Observations:
     K16T10J* C2016 10 05.08937 22 08 59.89 +27 25 49.6          19.8 VqET052G96
     K16T10J  C2016 10 05.09367 22 08 58.27 +27 25 22.5          20.1 VqET052G96
     K16T10J  C2016 10 05.09795 22 08 56.70 +27 24 56.0          20.4 VqET052G96
     K16T10J  C2016 10 05.13655622 08 41.43 +27 20 50.7          20.8 VtET052H01
     K16T10J  C2016 10 05.13714 22 08 41.95 +27 20 50.6          20.4 VqET052G96
     K16T10J KC2016 10 05.13763 22 08 43.44 +27 20 25.0          19.6 RqET052G58
     K16T10J  C2016 10 05.14200 22 08 40.06 +27 20 19.2          20.1 VqET052G96
     K16T10J KC2016 10 05.14628 22 08 40.25 +27 19 30.2          19.6 RqET052G58
     K16T10J  C2016 10 05.14682 22 08 38.22 +27 19 48.6          20.3 VqET052G96
     K16T10J  C2016 10 05.14703222 08 37.42 +27 19 43.5          21.0 VtET052H01
     K16T10J  C2016 10 05.15161 22 08 36.42 +27 19 17.6          20.4 VqET052G96
     K16T10J KC2016 10 05.15325 22 08 37.60 +27 18 47.0          20.2 RqET052G58
     K16T10J  C2016 10 05.15507122 08 34.32 +27 18 51.6          20.5 VtET052H01
     K16T10J  C2016 10 05.15894922 08 32.83 +27 18 26.3          20.4 VtET052H01
     K16T10J KC2016 10 05.16114 22 08 34.63 +27 17 55.8          19.9 RqET052G58
     K16T10J  C2016 10 05.18390 22 08 23.87 +27 15 50.9          20.1 RoET052926
     K16T10J  C2016 10 05.18632 22 08 22.92 +27 15 35.2          19.8 RoET052926
     K16T10J  C2016 10 05.18874 22 08 21.97 +27 15 19.0          19.9 RoET052926
     K16T10J  C2016 10 06.17644 22 02 19.07 +25 04 45.4          19.7 RoET052926
     K16T10J  C2016 10 06.17876 22 02 17.96 +25 04 23.3          19.7 RoET052926
     K16T10J  C2016 10 06.18110 22 02 16.76 +25 04 01.4          19.7 RoET052926
     K16T10J  C2016 10 06.51313 21 59 45.84 +24 07 34.4          20.2 RoET052300
     K16T10J  C2016 10 06.51544 21 59 44.59 +24 07 09.4          20.2 RoET052300
     K16T10J  C2016 10 06.51775 21 59 43.22 +24 06 44.3          20.1 RoET052300
     K16T10J  C2016 10 06.52236 21 59 40.60 +24 05 53.8          20.2 RoET052300
 
Observer details:
300 Bisei Spaceguard Center--BATTeRS.  Observers S. Okumura, A. Asami.  1.0-m
    f/3.0 reflector + CCD.
926 Tenagra II Observatory.  Observers M. Schwartz, P. R. Holvorcem.  Measurer
    M. Schwartz.  0.81-m f/7 Ritchey-Chretien + CCD.
G58 Chabot Space and Science Center, Oakland.  Observer G. McKeegan.  0.9-m
    f/4.5 Cassegrain + CCD.
G96 Mt. Lemmon Survey.  Observer R. G. Matheny.  Measurers E. J. Christensen,
    D. C. Fuls, A. R. Gibbs, A. D. Grauer, J. A. Johnson, R. A. Kowalski,
    S. M. Larson, G. J. Leonard, R. G. Matheny, R. L. Seaman, F. C. Shelly.
    1.5-m reflector + 10K CCD.
H01 Magdalena Ridge Observatory, Socorro.  Observers W. H. Ryan, E. V. Ryan.
    Measurer W. H. Ryan.  2.4-m f/8.9 reflector + CCD.
 
Orbital elements:
2016 TJ10                                                Earth MOID = 0.0017 AU
Epoch 2016 July 31.0 TT = JDT 2457600.5                 MPC
M 312.77498              (2000.0)            P               Q
n   0.42579221     Peri.  233.58017     +0.34656977     -0.93476881
a   1.7498638      Node   196.67353     +0.92394708     +0.35455087
e   0.5056016      Incl.   15.79150     +0.16189868     -0.02238204
P   2.31           H   25.4           G   0.15           U   6
Residuals in seconds of arc
161005 G96  0.6+  0.8+    161005 H01  0.4+  0.0     161006 926  0.9-  0.4+
161005 G96  0.1+  0.1+    161005 G96  0.5+  0.2-    161006 926  0.2+  0.2+
161005 G96  0.2+  0.0     161005 G58  0.1-  1.0+    161006 926  0.3+  0.5+
161005 H01  0.3+  0.1+    161005 H01  0.3+  0.0     161006 300  0.2+  0.2-
161005 G96  0.2+  0.2+    161005 H01  0.5+  0.1-    161006 300  1.0+  0.0
161005 G58  0.1-  0.0     161005 G58  0.1+  0.2+    161006 300  0.1+  0.1+
161005 G96  0.2-  0.2-    161005 926  0.2+  0.2+    161006 300  0.0   0.1+
161005 G58  0.4+  0.1-    161005 926  0.2+  0.4+
161005 G96  0.1-  0.0     161005 926  0.2+  0.2+

Ephemeris:
2016 TJ10                a,e,i = 1.75, 0.51, 16                  q = 0.8651
Date    TT    R. A. (2000) Decl.     Delta      r     Elong.  Phase     V
2016 09 06    22 47 42.9 +33 07 06   0.2911  1.2460   140.3    31.1    24.5
...
2016 09 21    22 37 02.6 +34 07 07   0.1617  1.1340   140.8    34.0    23.1
...
2016 09 29    22 26 48.0 +32 40 19   0.09665 1.0770   139.4    37.3    22.0
...
2016 10 05    22 09 20.5 +27 35 47   0.04924 1.0364   136.7    41.4    20.6
2016 10 06    22 03 31.8 +25 32 10   0.04151 1.0299   135.8    42.6    20.2
2016 10 07    21 55 33.9 +22 30 36   0.03390 1.0234   134.3    44.3    19.8
...
2016 10 13    13 34 28.2 -60 36 08   0.01893 0.9864    53.0   126.1    22.1
...
2016 10 21    11 08 59.9 -43 55 03   0.07996 0.9427    47.0   129.5    25.4
...
2016 11 05    11 04 48.8 -39 16 48   0.1999  0.8843    52.6   117.1    26.3

A. U. Tomatic                (C) Copyright 2016 MPC           M.P.E.C. 2016-T52




More information about the Iaude mailing list